Time,TemperatureF,DewpointF,PressureIn,WindDirection,WindDirectionDegrees,WindSpeedMPH,WindSpeedGustMPH,Humidity,HourlyPrecipIn,Conditions,Clouds,dailyrainin,SoftwareType,DateUTC
2013-07-01 00:13:00,74.9,65.0,29.78,NNW,337,0.0,-999.0,71,-99.99,,,0.00,weatherlink.com 1.10,2013-07-01 05:13:00,
2013-07-01 00:28:00,74.4,64.0,29.79,NNW,337,0.0,-999.0,71,-99.99,,,0.00,weatherlink.com 1.10,2013-07-01 05:28:00,
2013-07-01 00:43:00,74.0,64.0,29.79,NNW,337,0.0,-999.0,72,-99.99,,,0.00,weatherlink.com 1.10,2013-07-01 05:43:00,
2013-07-01 00:58:00,73.7,65.0,29.79,NNW,337,0.0,-999.0,73,-99.99,,,0.00,weatherlink.com 1.10,2013-07-01 05:58:00,
2013-07-01 01:13:00,73.0,64.0,29.79,NNW,336,0.0,-999.0,74,-99.99,,,0.00,weatherlink.com 1.10,2013-07-01 06:13:00,
2013-07-01 01:28:00,72.5,64.0,29.79,NNW,337,0.0,-999.0,75,-99.99,,,0.00,weatherlink.com 1.10,2013-07-01 06:28:00,
2013-07-01 01:43:00,72.0,64.0,29.79,NNW,336,0.0,-999.0,76,-99.99,,,0.00,weatherlink.com 1.10,2013-07-01 06:43:00,
2013-07-01 01:58:00,71.5,64.0,29.79,NNW,336,0.0,-999.0,76,-99.99,,,0.00,weatherlink.com 1.10,2013-07-01 06:58:00,
2013-07-01 02:13:00,70.8,63.0,29.79,NNW,336,0.0,-999.0,77,-99.99,,,0.00,weatherlink.com 1.10,2013-07-01 07:13:00,
2013-07-01 02:28:00,70.3,63.0,29.79,NNW,337,0.0,-999.0,77,-99.99,,,0.00,weatherlink.com 1.10,2013-07-01 07:28:00,
2013-07-01 02:43:00,69.8,63.0,29.80,NNW,336,0.0,-999.0,79,-99.99,,,0.00,weatherlink.com 1.10,2013-07-01 07:43:00,
2013-07-01 02:58:00,69.3,63.0,29.80,NNW,336,0.0,-999.0,79,-99.99,,,0.00,weatherlink.com 1.10,2013-07-01 07:58:00,
2013-07-01 03:13:00,68.8,62.0,29.80,NNW,337,0.0,-999.0,80,-99.99,,,0.00,weatherlink.com 1.10,2013-07-01 08:13:00,
2013-07-01 03:28:00,68.4,62.0,29.80,NNW,337,0.0,-999.0,81,-99.99,,,0.00,weatherlink.com 1.10,2013-07-01 08:28:00,
2013-07-01 03:43:00,68.3,63.0,29.80,NNW,337,0.0,-999.0,83,-99.99,,,0.00,weatherlink.com 1.10,2013-07-01 08:43:00,
2013-07-01 03:58:00,67.9,63.0,29.80,NNW,337,0.0,-999.0,84,-99.99,,,0.00,weatherlink.com 1.10,2013-07-01 08:58:00,
2013-07-01 04:13:00,67.6,63.0,29.81,NNW,336,0.0,-999.0,84,-99.99,,,0.00,weatherlink.com 1.10,2013-07-01 09:13:00,
2013-07-01 04:28:00,67.6,63.0,29.81,NNW,336,0.0,-999.0,86,-99.99,,,0.00,weatherlink.com 1.10,2013-07-01 09:28:00,
2013-07-01 04:43:00,67.3,63.0,29.81,NNW,336,0.0,-999.0,86,-99.99,,,0.00,weatherlink.com 1.10,2013-07-01 09:43:00,
2013-07-01 04:58:00,67.1,63.0,29.82,NNW,337,0.0,-999.0,86,-99.99,,,0.00,weatherlink.com 1.10,2013-07-01 09:58:00,
2013-07-01 05:13:00,66.8,63.0,29.82,NNW,337,0.0,-999.0,86,-99.99,,,0.00,weatherlink.com 1.10,2013-07-01 10:13:00,
2013-07-01 05:28:00,66.4,62.0,29.82,NNW,337,0.0,-999.0,86,-99.99,,,0.00,weatherlink.com 1.10,2013-07-01 10:28:00,
2013-07-01 05:43:00,66.1,62.0,29.83,NNW,337,0.0,-999.0,86,-99.99,,,0.00,weatherlink.com 1.10,2013-07-01 10:43:00,
2013-07-01 05:58:00,65.8,62.0,29.84,NNW,337,0.0,-999.0,86,-99.99,,,0.00,weatherlink.com 1.10,2013-07-01 10:58:00,
2013-07-01 06:13:00,65.6,62.0,29.83,NNW,337,0.0,-999.0,87,-99.99,,,0.00,weatherlink.com 1.10,2013-07-01 11:13:00,
2013-07-01 06:28:00,65.6,62.0,29.84,NNW,337,0.0,-999.0,87,-99.99,,,0.00,weatherlink.com 1.10,2013-07-01 11:28:00,
2013-07-01 06:43:00,65.6,62.0,29.83,NNW,337,0.0,-999.0,88,-99.99,,,0.00,weatherlink.com 1.10,2013-07-01 11:43:00,
2013-07-01 06:58:00,65.6,62.0,29.84,NNW,337,0.0,-999.0,89,-99.99,,,0.00,weatherlink.com 1.10,2013-07-01 11:58:00,
2013-07-01 07:13:00,66.1,63.0,29.84,NNW,337,0.0,-999.0,90,-99.99,,,0.00,weatherlink.com 1.10,2013-07-01 12:13:00,
2013-07-01 07:28:00,66.9,64.0,29.84,NNW,337,0.0,-999.0,91,-99.99,,,0.00,weatherlink.com 1.10,2013-07-01 12:28:00,
2013-07-01 07:43:00,67.8,65.0,29.85,NNW,336,0.0,-999.0,91,-99.99,,,0.00,weatherlink.com 1.10,2013-07-01 12:43:00,
2013-07-01 07:58:00,68.9,66.0,29.86,NNW,336,0.0,-999.0,91,-99.99,,,0.00,weatherlink.com 1.10,2013-07-01 12:58:00,
2013-07-01 08:13:00,69.9,67.0,29.86,NNW,336,1.0,-999.0,89,-99.99,,,0.00,weatherlink.com 1.10,2013-07-01 13:13:00,
2013-07-01 08:28:00,71.1,67.0,29.86,NNW,337,3.0,-999.0,88,-99.99,,,0.00,weatherlink.com 1.10,2013-07-01 13:28:00,
2013-07-01 08:43:00,72.7,68.0,29.86,NNW,347,0.0,-999.0,84,-99.99,,,0.00,weatherlink.com 1.10,2013-07-01 13:43:00,
2013-07-01 08:58:00,74.2,67.0,29.86,NW,322,0.0,-999.0,77,-99.99,,,0.00,weatherlink.com 1.10,2013-07-01 13:58:00,
2013-07-01 09:13:00,76.3,67.0,29.86,North,0,0.0,-999.0,73,-99.99,,,0.00,weatherlink.com 1.10,2013-07-01 14:13:00,
2013-07-01 09:28:00,78.1,68.0,29.86,North,4,0.0,-999.0,70,-99.99,,,0.00,weatherlink.com 1.10,2013-07-01 14:28:00,
2013-07-01 09:43:00,79.6,68.0,29.87,North,0,0.0,-999.0,67,-99.99,,,0.00,weatherlink.com 1.10,2013-07-01 14:43:00,
2013-07-01 09:58:00,80.9,67.0,29.87,North,4,2.0,-999.0,63,-99.99,,,0.00,weatherlink.com 1.10,2013-07-01 14:58:00,
2013-07-01 10:13:00,80.9,66.0,29.87,North,6,0.0,-999.0,61,-99.99,,,0.00,weatherlink.com 1.10,2013-07-01 15:13:00,
2013-07-01 10:28:00,80.3,67.0,29.87,NW,312,0.0,-999.0,63,-99.99,,,0.00,weatherlink.com 1.10,2013-07-01 15:28:00,
2013-07-01 10:43:00,81.1,68.0,29.87,NW,322,0.0,-999.0,64,-99.99,,,0.00,weatherlink.com 1.10,2013-07-01 15:43:00,
2013-07-01 10:58:00,80.9,67.0,29.87,SW,222,1.0,-999.0,62,-99.99,,,0.00,weatherlink.com 1.10,2013-07-01 15:58:00,
2013-07-01 11:13:00,82.0,65.0,29.87,NW,316,0.0,-999.0,57,-99.99,,,0.00,weatherlink.com 1.10,2013-07-01 16:13:00,
2013-07-01 11:28:00,82.8,68.0,29.86,NW,315,2.0,-999.0,61,-99.99,,,0.00,weatherlink.com 1.10,2013-07-01 16:28:00,
2013-07-01 11:43:00,83.2,65.0,29.86,NNE,25,2.0,-999.0,55,-99.99,,,0.00,weatherlink.com 1.10,2013-07-01 16:43:00,
2013-07-01 11:58:00,83.8,65.0,29.86,NW,325,1.0,-999.0,54,-99.99,,,0.00,weatherlink.com 1.10,2013-07-01 16:58:00,
2013-07-01 12:13:00,83.0,66.0,29.86,NNW,330,3.0,-999.0,56,-99.99,,,0.00,weatherlink.com 1.10,2013-07-01 17:13:00,
2013-07-01 12:28:00,84.3,67.0,29.86,NNW,329,1.0,-999.0,56,-99.99,,,0.00,weatherlink.com 1.10,2013-07-01 17:28:00,
2013-07-01 12:43:00,84.1,66.0,29.86,NNW,342,0.0,-999.0,55,-99.99,,,0.00,weatherlink.com 1.10,2013-07-01 17:43:00,
2013-07-01 12:58:00,84.9,65.0,29.86,West,270,3.0,-999.0,51,-99.99,,,0.00,weatherlink.com 1.10,2013-07-01 17:58:00,
2013-07-01 13:13:00,86.1,67.0,29.85,NNW,336,0.0,-999.0,53,-99.99,,,0.00,weatherlink.com 1.10,2013-07-01 18:13:00,
2013-07-01 13:28:00,86.1,67.0,29.84,WNW,285,0.0,-999.0,53,-99.99,,,0.00,weatherlink.com 1.10,2013-07-01 18:28:00,
2013-07-01 13:43:00,85.9,66.0,29.84,North,11,5.0,-999.0,52,-99.99,,,0.00,weatherlink.com 1.10,2013-07-01 18:43:00,
2013-07-01 13:58:00,85.5,65.0,29.84,WNW,295,2.0,-999.0,50,-99.99,,,0.00,weatherlink.com 1.10,2013-07-01 18:58:00,
2013-07-01 14:13:00,85.9,65.0,29.83,NW,308,0.0,-999.0,50,-99.99,,,0.00,weatherlink.com 1.10,2013-07-01 19:13:00,
2013-07-01 14:28:00,86.5,66.0,29.82,WNW,301,0.0,-999.0,50,-99.99,,,0.00,weatherlink.com 1.10,2013-07-01 19:28:00,
2013-07-01 14:43:00,86.3,64.0,29.82,WNW,295,3.0,-999.0,47,-99.99,,,0.00,weatherlink.com 1.10,2013-07-01 19:43:00,
2013-07-01 14:58:00,87.2,67.0,29.82,NNW,340,1.0,-999.0,52,-99.99,,,0.00,weatherlink.com 1.10,2013-07-01 19:58:00,
2013-07-01 15:13:00,85.9,66.0,29.82,West,263,0.0,-999.0,52,-99.99,,,0.00,weatherlink.com 1.10,2013-07-01 20:13:00,
2013-07-01 15:28:00,85.9,65.0,29.82,NW,320,1.0,-999.0,50,-99.99,,,0.00,weatherlink.com 1.10,2013-07-01 20:28:00,
2013-07-01 15:43:00,87.0,65.0,29.82,North,350,1.0,-999.0,48,-99.99,,,0.00,weatherlink.com 1.10,2013-07-01 20:43:00,
2013-07-01 15:58:00,87.4,65.0,29.82,NNE,27,0.0,-999.0,47,-99.99,,,0.00,weatherlink.com 1.10,2013-07-01 20:58:00,
2013-07-01 16:13:00,87.6,64.0,29.82,WNW,299,1.0,-999.0,45,-99.99,,,0.00,weatherlink.com 1.10,2013-07-01 21:13:00,
2013-07-01 16:28:00,87.8,65.0,29.82,North,357,7.0,-999.0,47,-99.99,,,0.00,weatherlink.com 1.10,2013-07-01 21:28:00,
2013-07-01 16:43:00,87.0,64.0,29.82,NW,305,2.0,-999.0,46,-99.99,,,0.00,weatherlink.com 1.10,2013-07-01 21:43:00,
2013-07-01 16:58:00,86.1,65.0,29.81,NW,319,3.0,-999.0,50,-99.99,,,0.00,weatherlink.com 1.10,2013-07-01 21:58:00,
2013-07-01 17:13:00,86.3,64.0,29.81,NNE,23,2.0,-999.0,48,-99.99,,,0.00,weatherlink.com 1.10,2013-07-01 22:13:00,
2013-07-01 17:28:00,86.7,64.0,29.81,NNW,347,2.0,-999.0,46,-99.99,,,0.00,weatherlink.com 1.10,2013-07-01 22:28:00,
2013-07-01 17:43:00,85.9,63.0,29.81,NNE,20,2.0,-999.0,47,-99.99,,,0.00,weatherlink.com 1.10,2013-07-01 22:43:00,
2013-07-01 17:58:00,85.3,65.0,29.81,NW,309,1.0,-999.0,51,-99.99,,,0.00,weatherlink.com 1.10,2013-07-01 22:58:00,
2013-07-01 18:13:00,84.7,63.0,29.81,NW,326,2.0,-999.0,49,-99.99,,,0.00,weatherlink.com 1.10,2013-07-01 23:13:00,
2013-07-01 18:28:00,84.3,63.0,29.81,NNE,17,0.0,-999.0,49,-99.99,,,0.00,weatherlink.com 1.10,2013-07-01 23:28:00,
2013-07-01 18:43:00,83.8,63.0,29.81,NNW,333,0.0,-999.0,50,-99.99,,,0.00,weatherlink.com 1.10,2013-07-01 23:43:00,
2013-07-01 18:58:00,83.4,64.0,29.81,NNE,16,0.0,-999.0,52,-99.99,,,0.00,weatherlink.com 1.10,2013-07-01 23:58:00,
2013-07-01 19:13:00,83.2,63.0,29.82,North,3,1.0,-999.0,50,-99.99,,,0.00,weatherlink.com 1.10,2013-07-02 00:13:00,
2013-07-01 19:28:00,83.0,63.0,29.83,NW,323,0.0,-999.0,51,-99.99,,,0.00,weatherlink.com 1.10,2013-07-02 00:28:00,
2013-07-01 19:43:00,82.6,63.0,29.83,ENE,75,0.0,-999.0,51,-99.99,,,0.00,weatherlink.com 1.10,2013-07-02 00:43:00,
2013-07-01 19:58:00,82.2,63.0,29.84,NE,49,0.0,-999.0,53,-99.99,,,0.00,weatherlink.com 1.10,2013-07-02 00:58:00,
2013-07-01 20:13:00,81.4,63.0,29.84,NE,49,0.0,-999.0,54,-99.99,,,0.00,weatherlink.com 1.10,2013-07-02 01:13:00,
2013-07-01 20:28:00,80.7,63.0,29.84,NE,49,0.0,-999.0,56,-99.99,,,0.00,weatherlink.com 1.10,2013-07-02 01:28:00,
2013-07-01 20:43:00,79.8,63.0,29.84,NE,49,0.0,-999.0,57,-99.99,,,0.00,weatherlink.com 1.10,2013-07-02 01:43:00,
2013-07-01 20:58:00,78.8,63.0,29.85,NE,49,0.0,-999.0,59,-99.99,,,0.00,weatherlink.com 1.10,2013-07-02 01:58:00,
2013-07-01 21:13:00,77.9,63.0,29.85,NE,49,0.0,-999.0,60,-99.99,,,0.00,weatherlink.com 1.10,2013-07-02 02:13:00,
2013-07-01 21:28:00,77.2,63.0,29.86,NE,49,0.0,-999.0,62,-99.99,,,0.00,weatherlink.com 1.10,2013-07-02 02:28:00,
2013-07-01 21:43:00,76.5,63.0,29.86,NE,49,0.0,-999.0,64,-99.99,,,0.00,weatherlink.com 1.10,2013-07-02 02:43:00,
2013-07-01 21:58:00,75.8,64.0,29.86,NE,49,0.0,-999.0,66,-99.99,,,0.00,weatherlink.com 1.10,2013-07-02 02:58:00,
2013-07-01 22:13:00,75.1,64.0,29.87,NE,49,0.0,-999.0,68,-99.99,,,0.00,weatherlink.com 1.10,2013-07-02 03:13:00,
2013-07-01 22:28:00,74.6,63.0,29.87,NE,49,0.0,-999.0,68,-99.99,,,0.00,weatherlink.com 1.10,2013-07-02 03:28:00,
2013-07-01 22:43:00,74.2,63.0,29.88,NE,49,0.0,-999.0,69,-99.99,,,0.00,weatherlink.com 1.10,2013-07-02 03:43:00,
2013-07-01 22:58:00,73.7,63.0,29.88,NE,49,0.0,-999.0,70,-99.99,,,0.00,weatherlink.com 1.10,2013-07-02 03:58:00,
2013-07-01 23:13:00,73.2,63.0,29.88,NE,49,0.0,-999.0,71,-99.99,,,0.00,weatherlink.com 1.10,2013-07-02 04:13:00,
2013-07-01 23:28:00,72.8,63.0,29.89,NE,49,0.0,-999.0,72,-99.99,,,0.00,weatherlink.com 1.10,2013-07-02 04:28:00,
2013-07-01 23:43:00,72.3,63.0,29.89,NE,49,0.0,-999.0,73,-99.99,,,0.00,weatherlink.com 1.10,2013-07-02 04:43:00,
2013-07-01 23:58:00,72.0,63.0,29.89,NE,49,0.0,-999.0,74,-99.99,,,0.00,weatherlink.com 1.10,2013-07-02 04:58:00,